{"data":{"norad_id":57359,"epoch":"2026-09-20T13:53:05.801568Z","epoch_age_seconds":117432,"freshness":"FRESH","line1":"1 57359U 23099AH  26263.57853937  .00000175  00000+0  15876-4 0  9991","line2":"2 57359  43.0015 221.1717 0000924 247.1482 112.9272 15.27577557176007","mean_motion":15.27577557,"eccentricity":9.24e-5,"inclination_deg":43.0015,"raan_deg":221.1717,"arg_perigee_deg":247.1482,"mean_anomaly_deg":112.9272,"bstar":1.5876e-5,"rev_number":17600,"period_min":94.266899471082,"perigee_km":482.42243699907,"apogee_km":483.69038554147,"semimajor_km":6861.1934112703,"source":"CELESTRAK","updated_at":"2026-09-21T09:00:33.602429Z"}}